New River MCAS, NC

2:40 AM EDT on March 24, 2017 (GMT -0400)
New River Marine Corps Air Station

Weather History for KNCA - June, 2013

Change the Weather History Date:

Saturday, June 1, 2013

  Actual Average Record
Temperature  
Mean Temperature 75 °F -  
Max Temperature 84 °F 80 °F 91 °F (1998)
Min Temperature 66 °F 61 °F 55 °F (1999)
Cooling Degree Days 10    
Growing Degree Days 25 (Base 50)    
Moisture  
Dew Point 68 °F    
Average Humidity 81    
Maximum Humidity 100    
Minimum Humidity 55    
Precipitation  
Precipitation 0.00 in - - ()
Sea Level Pressure  
Sea Level Pressure 30.15 in    
Wind  
Wind Speed 4 mph (SSW)    
Max Wind Speed 17 mph    
Max Gust Speed 22 mph    
Visibility 8 miles    
Events      
Averages and records for this station are not official NWS values.
T = Trace of Precipitation, MM = Missing Value Source: NWS Daily Summary

Daily Weather History Graph

Daily Weather History Graph

Search for Another Location

Airport or City:

Trip Planner

Search our weather history database for the weather conditions in past years. The results will help you decide how hot, cold, wet, or windy it might be!

Date:

Astronomy

Jun. 01, 2013 Rise Set
Actual Time 5:57 AM EDT 8:17 PM EDT
Civil Twilight 5:28 AM EDT 8:46 PM EDT
Nautical Twilight 4:52 AM EDT 9:22 PM EDT
Astronomical Twilight 4:14 AM EDT 10:01 PM EDT
Moon 1:36 AM EDT (6/1) 1:59 PM EDT (6/1)
Length of Visible Light 15h 18m
Length of Day
14h 20m
Last Quarter, 41% of the Moon is Illuminated
Jun 1
Last Quarter
Jun 8
New
Jun 16
First Quarter
Jun 23
Full
Jun 30
Last Quarter

Hourly Weather History & Observations

Time (EDT) Temp. Heat Index Dew Point Humidity Pressure Visibility Wind Dir Wind Speed Gust Speed Precip Events Conditions
12:56 AM 71.1 °F - 70.0 °F 96% 30.18 in 10.0 mi SSW 3.5 mph - N/A   Clear
1:56 AM 71.1 °F - 70.0 °F 96% 30.17 in 10.0 mi SW 3.5 mph - N/A   Clear
2:56 AM 70.0 °F - 70.0 °F 100% 30.16 in 9.0 mi Calm Calm - N/A   Clear
3:45 AM 69.8 °F - 68.0 °F 94% 30.15 in 1.8 mi Calm Calm - N/A   Clear
3:52 AM 69.8 °F - 69.8 °F 100% 30.15 in 3.0 mi Calm Calm - N/A   Clear
3:56 AM 69.1 °F - 68.0 °F 96% 30.16 in 6.0 mi Calm Calm - N/A   Clear
4:25 AM 68.0 °F - 68.0 °F 100% 30.15 in 1.5 mi Calm Calm - N/A   Clear
4:36 AM 68.0 °F - 68.0 °F 100% 30.15 in 3.0 mi Calm Calm - N/A   Clear
4:56 AM 68.0 °F - 66.9 °F 96% 30.17 in 8.0 mi Calm Calm - N/A   Clear
5:56 AM 66.9 °F - 66.9 °F 100% 30.19 in 7.0 mi Calm Calm - N/A   Clear
6:56 AM 70.0 °F - 69.1 °F 97% 30.19 in 8.0 mi SSW 3.5 mph - N/A   Clear
7:56 AM 73.9 °F - 71.1 °F 91% 30.20 in 10.0 mi WSW 5.8 mph - N/A   Clear
8:56 AM 75.9 °F - 70.0 °F 82% 30.20 in 10.0 mi WSW 9.2 mph - N/A   Scattered Clouds
10:56 AM 81.0 °F 83.0 °F 66.0 °F 60% 30.17 in 10.0 mi WSW 5.8 mph - N/A   Clear
11:56 AM 84.0 °F 86.3 °F 66.0 °F 55% 30.16 in 10.0 mi South 8.1 mph - N/A   Partly Cloudy
12:56 PM 82.9 °F 85.8 °F 68.0 °F 60% 30.15 in 10.0 mi SSE 15.0 mph - N/A   Scattered Clouds
1:56 PM 82.9 °F 85.8 °F 68.0 °F 60% 30.13 in 10.0 mi South 13.8 mph - N/A   Clear
2:56 PM 84.0 °F 86.5 °F 66.9 °F 56% 30.12 in 10.0 mi South 13.8 mph 20.7 mph N/A   Clear
3:56 PM 82.9 °F 85.4 °F 66.9 °F 58% 30.12 in 10.0 mi SSW 13.8 mph 19.6 mph N/A   Clear
4:56 PM 82.9 °F 85.0 °F 66.0 °F 56% 30.11 in 10.0 mi South 17.3 mph 20.7 mph N/A   Clear
5:56 PM 81.0 °F 82.5 °F 64.0 °F 56% 30.10 in 10.0 mi South 13.8 mph 21.9 mph N/A   Clear
7:56 PM 77.0 °F - 64.9 °F 66% 30.12 in 10.0 mi South 8.1 mph - N/A   Clear
8:56 PM 73.9 °F - 68.0 °F 82% 30.11 in 10.0 mi South 6.9 mph - N/A   Clear
9:56 PM 73.0 °F - 68.0 °F 84% 30.12 in 10.0 mi South 6.9 mph - N/A   Clear
10:56 PM 72.0 °F - 68.0 °F 87% 30.13 in 10.0 mi SSW 3.5 mph - N/A   Clear
11:56 PM 71.1 °F - 68.0 °F 90% 30.13 in 10.0 mi South 3.5 mph - N/A   Clear